| time (UTC) | temp C | wind direction | speed KPH | gust KPH | rain 1hr cm | rain 24hr cm | rain mn cm | humidity % | barometer mb |
| 20260906103005 | 17 | 90 | 0.0 | 0.0 | 0.00 | 0.00 | 0.00 | 86 | 1015.4 |
| 20260906101534 | 17 | 90 | 0.0 | 0.0 | 0.00 | 0.00 | 0.00 | 86 | 1015.4 |
| 20260906100007 | 17 | 90 | 0.0 | 0.0 | 0.00 | 0.00 | 0.00 | 86 | 1015.3 |
| 20260906094556 | 17 | 90 | 0.0 | 0.0 | 0.00 | 0.00 | 0.00 | 86 | 1015.1 |
| 20260906093011 | 18 | 61 | 0.0 | 0.0 | 0.00 | 0.00 | 0.00 | 86 | 1015.1 |
| 20260906091539 | 18 | 68 | 0.0 | 1.6 | 0.00 | 0.00 | 0.00 | 86 | 1014.9 |
| 20260906090011 | 18 | 113 | 0.0 | 0.0 | 0.00 | 0.00 | 0.00 | 86 | 1015.0 |
| 20260906084540 | 18 | 113 | 0.0 | 0.0 | 0.00 | 0.03 | 0.00 | 86 | 1015.1 |
| 20260906083010 | 18 | 113 | 0.0 | 0.0 | 0.00 | 0.03 | 0.00 | 86 | 1014.8 |
| 20260906081540 | 18 | 119 | 0.0 | 0.0 | 0.00 | 0.03 | 0.00 | 86 | 1014.8 |
| 20260906080010 | 19 | 51 | 0.0 | 0.0 | 0.00 | 0.03 | 0.00 | 86 | 1014.7 |
| 20260906074541 | 19 | 51 | 0.0 | 1.6 | 0.00 | 0.03 | 0.00 | 85 | 1014.5 |
| 20260906073018 | 19 | 111 | 0.0 | 3.2 | 0.00 | 0.03 | 0.00 | 85 | 1014.4 |
| 20260906071543 | 20 | 171 | 0.0 | 3.2 | 0.00 | 0.03 | 0.00 | 84 | 1014.3 |
| 20260906070014 | 20 | 115 | 0.0 | 3.2 | 0.00 | 0.03 | 0.00 | 84 | 1014.6 |
| 20260906064545 | 20 | 82 | 0.0 | 4.8 | 0.00 | 0.03 | 0.00 | 85 | 1014.6 |
| 20260906063018 | 20 | 202 | 0.0 | 3.2 | 0.00 | 0.03 | 0.00 | 85 | 1014.7 |
| 20260906061547 | 20 | 142 | 0.0 | 3.2 | 0.00 | 0.03 | 0.00 | 86 | 1014.7 |
| 20260906060027 | 20 | 118 | 0.0 | 3.2 | 0.00 | 0.03 | 0.00 | 86 | 1014.6 |
| 20260906054608 | 20 | 67 | 0.0 | 3.2 | 0.00 | 0.18 | 0.00 | 86 | 1014.4 |
| 20260906053028 | 20 | 304 | 0.0 | 1.6 | 0.00 | 0.18 | 0.00 | 86 | 1014.1 |
| 20260906051607 | 21 | 66 | 0.0 | 6.4 | 0.00 | 0.18 | 0.00 | 85 | 1014.0 |
| 20260906050030 | 21 | 69 | 0.0 | 4.8 | 0.00 | 0.18 | 0.00 | 84 | 1014.2 |
| 20260906044608 | 21 | 74 | 1.6 | 8.0 | 0.00 | 0.18 | 0.00 | 84 | 1013.9 |
| 20260906043032 | 21 | 40 | 0.0 | 6.4 | 0.00 | 0.18 | 0.00 | 84 | 1013.9 |
| 20260906041502 | 22 | 71 | 0.0 | 12.9 | 0.00 | 0.18 | 0.00 | 84 | 1013.6 |
| 20260906040034 | 22 | 69 | 0.0 | 8.0 | 0.00 | 0.18 | 0.00 | 86 | 1013.7 |
| 20260906034507 | 22 | 19 | 0.0 | 3.2 | 0.00 | 0.18 | 0.18 | 88 | 1013.6 |
| 20260906033045 | 22 | 98 | 1.6 | 6.4 | 0.00 | 0.18 | 0.18 | 88 | 1013.6 |
| 20260906031507 | 22 | 41 | 3.2 | 11.3 | 0.00 | 0.18 | 0.18 | 88 | 1013.7 |
| 20260906030038 | 22 | 21 | 1.6 | 6.4 | 0.00 | 0.18 | 0.18 | 88 | 1013.7 |
| 20260906024526 | 22 | 58 | 1.6 | 9.7 | 0.00 | 0.18 | 0.18 | 88 | 1013.7 |
| 20260906023040 | 23 | 66 | 1.6 | 6.4 | 0.00 | 0.18 | 0.18 | 88 | 1013.4 |
| 20260906021509 | 23 | 38 | 1.6 | 9.7 | 0.00 | 0.18 | 0.18 | 87 | 1013.4 |
| 20260906020039 | 23 | 296 | 0.0 | 4.8 | 0.00 | 0.18 | 0.18 | 85 | 1013.4 |
| 20260906014511 | 23 | 10 | 0.0 | 1.6 | 0.00 | 0.18 | 0.18 | 84 | 1013.3 |
| 20260906013047 | 23 | 292 | 0.0 | 4.8 | 0.00 | 0.18 | 0.18 | 84 | 1013.1 |
| 20260906011511 | 23 | 59 | 0.0 | 4.8 | 0.00 | 0.18 | 0.18 | 84 | 1012.9 |
| 20260906010049 | 23 | 72 | 0.0 | 3.2 | 0.00 | 0.18 | 0.18 | 84 | 1012.8 |
| 20260906004514 | 23 | 39 | 0.0 | 6.4 | 0.00 | 0.18 | 0.18 | 84 | 1012.7 |
| 20260906003045 | 23 | 49 | 0.0 | 6.4 | 0.00 | 0.18 | 0.18 | 83 | 1012.5 |
| 20260906001518 | 23 | 54 | 0.0 | 8.0 | 0.00 | 0.18 | 0.18 | 83 | 1012.3 |
| 20260906000047 | 23 | 335 | 1.6 | 8.0 | 0.00 | 0.18 | 0.18 | 83 | 1012.2 |
| 20260905234518 | 24 | 43 | 3.2 | 9.7 | 0.00 | 0.18 | 0.18 | 82 | 1012.2 |
| 20260905233050 | 24 | 47 | 0.0 | 8.0 | 0.00 | 0.18 | 0.18 | 82 | 1012.0 |
| 20260905231520 | 25 | 138 | 0.0 | 4.8 | 0.00 | 0.18 | 0.18 | 82 | 1012.0 |
| 20260905230051 | 25 | 63 | 1.6 | 8.0 | 0.00 | 0.18 | 0.18 | 82 | 1011.8 |
| 20260905224521 | 25 | 40 | 0.0 | 11.3 | 0.00 | 0.18 | 0.18 | 81 | 1011.7 |
| 20260905223053 | 25 | 11 | 0.0 | 8.0 | 0.00 | 0.18 | 0.18 | 81 | 1011.6 |
| 20260905221523 | 25 | 61 | 0.0 | 8.0 | 0.00 | 0.18 | 0.18 | 82 | 1011.4 |
| 20260905220056 | 25 | 350 | 0.0 | 11.3 | 0.00 | 0.18 | 0.18 | 82 | 1011.2 |
| 20260905214526 | 26 | 36 | 3.2 | 14.5 | 0.00 | 0.18 | 0.18 | 80 | 1011.2 |
| 20260905213103 | 26 | 346 | 1.6 | 17.7 | 0.00 | 0.18 | 0.18 | 79 | 1011.1 |
| 20260905211534 | 26 | 41 | 4.8 | 12.9 | 0.00 | 0.18 | 0.18 | 79 | 1011.0 |
| 20260905210058 | 26 | 316 | 1.6 | 14.5 | 0.00 | 0.18 | 0.18 | 79 | 1011.2 |
| 20260905204529 | 26 | 310 | 4.8 | 14.5 | 0.00 | 0.18 | 0.18 | 78 | 1011.2 |
| 20260905203104 | 26 | 36 | 3.2 | 19.3 | 0.00 | 0.18 | 0.18 | 78 | 1011.1 |
| 20260905201528 | 27 | 5 | 4.8 | 9.7 | 0.00 | 0.18 | 0.18 | 78 | 1011.3 |
| 20260905194530 | 26 | 349 | 4.8 | 12.9 | 0.00 | 0.18 | 0.18 | 78 | 1011.6 |
| 20260905193114 | 26 | 49 | 6.4 | 16.1 | 0.00 | 0.18 | 0.18 | 79 | 1011.5 |
| 20260905191532 | 26 | 355 | 3.2 | 17.7 | 0.00 | 0.18 | 0.18 | 80 | 1011.6 |
| 20260905190002 | 27 | 300 | 4.8 | 16.1 | 0.00 | 0.18 | 0.18 | 79 | 1011.5 |
| 20260905184541 | 27 | 163 | 3.2 | 14.5 | 0.00 | 0.18 | 0.18 | 78 | 1011.7 |
| 20260905183004 | 27 | 20 | 3.2 | 14.5 | 0.00 | 0.18 | 0.18 | 78 | 1011.6 |
| 20260905181539 | 27 | 10 | 1.6 | 11.3 | 0.00 | 0.18 | 0.18 | 79 | 1011.5 |
| 20260905180009 | 27 | 360 | 6.4 | 12.9 | 0.00 | 0.18 | 0.18 | 79 | 1011.4 |
| 20260905174538 | 27 | 297 | 1.6 | 12.9 | 0.00 | 0.18 | 0.18 | 77 | 1011.5 |
| 20260905173008 | 27 | 268 | 3.2 | 9.7 | 0.00 | 0.18 | 0.18 | 78 | 1011.5 |
| 20260905171538 | 27 | 311 | 3.2 | 9.7 | 0.00 | 0.18 | 0.18 | 80 | 1011.6 |
| 20260905170007 | 26 | 355 | 1.6 | 12.9 | 0.00 | 0.18 | 0.18 | 80 | 1011.7 |
| 20260905164539 | 26 | 329 | 3.2 | 12.9 | 0.00 | 0.76 | 0.18 | 82 | 1011.8 |
| 20260905163009 | 26 | 309 | 4.8 | 12.9 | 0.00 | 0.76 | 0.18 | 82 | 1011.7 |
| 20260905161556 | 26 | 295 | 4.8 | 9.7 | 0.00 | 0.76 | 0.18 | 81 | 1011.6 |
| 20260905160011 | 26 | 341 | 1.6 | 9.7 | 0.00 | 0.76 | 0.18 | 84 | 1011.5 |
| 20260905154543 | 25 | 271 | 3.2 | 8.0 | 0.00 | 0.76 | 0.18 | 85 | 1011.6 |
| 20260905153013 | 25 | 52 | 3.2 | 11.3 | 0.00 | 0.76 | 0.18 | 86 | 1011.5 |
| 20260905151545 | 24 | 348 | 0.0 | 0.0 | 0.00 | 0.76 | 0.18 | 87 | 1011.5 |
| 20260905150015 | 24 | 184 | 0.0 | 0.0 | 0.00 | 0.76 | 0.18 | 89 | 1011.2 |
| 20260905144539 | 23 | 57 | 0.0 | 0.0 | 0.00 | 0.76 | 0.18 | 90 | 1011.1 |
| 20260905143017 | 23 | 147 | 0.0 | 0.0 | 0.00 | 0.76 | 0.18 | 90 | 1011.2 |
| 20260905141541 | 23 | 53 | 0.0 | 0.0 | 0.00 | 0.76 | 0.18 | 90 | 1011.4 |
| 20260905140011 | 22 | 53 | 0.0 | 0.0 | 0.00 | 0.76 | 0.18 | 91 | 1011.3 |
| 20260905134547 | 22 | 297 | 0.0 | 0.0 | 0.00 | 0.76 | 0.18 | 91 | 1011.3 |
| 20260905133013 | 22 | 297 | 0.0 | 0.0 | 0.00 | 0.76 | 0.18 | 91 | 1011.1 |
| 20260905131544 | 22 | 140 | 0.0 | 0.0 | 0.00 | 0.76 | 0.18 | 91 | 1011.2 |
| 20260905130014 | 21 | 159 | 0.0 | 0.0 | 0.00 | 0.76 | 0.18 | 91 | 1011.1 |
| 20260905124546 | 21 | 159 | 0.0 | 0.0 | 0.00 | 0.76 | 0.18 | 91 | 1010.9 |
| 20260905123020 | 21 | 88 | 0.0 | 0.0 | 0.00 | 0.76 | 0.18 | 90 | 1010.9 |
| 20260905121548 | 21 | 75 | 0.0 | 0.0 | 0.00 | 0.76 | 0.18 | 91 | 1010.6 |
| 20260905120018 | 21 | 75 | 0.0 | 0.0 | 0.00 | 0.76 | 0.18 | 90 | 1010.4 |
| 20260905114551 | 21 | 75 | 0.0 | 0.0 | 0.00 | 0.76 | 0.18 | 90 | 1010.2 |
| 20260905113021 | 22 | 29 | 0.0 | 0.0 | 0.00 | 0.76 | 0.18 | 90 | 1010.1 |
| 20260905111604 | 22 | 144 | 0.0 | 0.0 | 0.00 | 0.76 | 0.18 | 90 | 1009.9 |
| 20260905110023 | 22 | 71 | 0.0 | 0.0 | 0.00 | 0.76 | 0.18 | 90 | 1009.8 |
| 20260905104612 | 22 | 61 | 0.0 | 0.0 | 0.00 | 0.76 | 0.18 | 90 | 1009.9 |